Tracking 20712 objects as of 27-May-2020
HD Live streaming from Space Station
objects crossing your sky now

IRIDIUM 71

Track IRIDIUM 71 now!
10-day predictions
IRIDIUM 71 is classified as:


NORAD ID: 25320
Int'l Code: 1998-026B
Perigee: 765.2 km
Apogee: 771.1 km
Inclination: 86.4 °
Period: 100.1 minutes
Semi major axis: 7139 km
RCS: 4.0318 m2 (large)
Launch date: May 2, 1998
Source: United States (US)
Launch site: Taiyaun Space Center, China (TSC)
aabbcc
Your satellite tracking list
Your tracking list is empty




NASA's NSSDC Master Catalog

Two Line Element Set (TLE):
1 25320U 98026B   20148.01335396 +.00000105 +00000-0 +27450-4 0  9990
2 25320 086.3962 148.9374 0004097 070.4956 289.6685 14.39246571157802
Source of the keplerian elements: AFSPC